Regional Weather Roundup
Issued by NWS Sioux Falls, SD

Home | Current Version | Previous Version | Text Only | Print | Product List | Glossary On
Versions: 1 2 3 4 5 6 7 8 9 10 11 12 13 14 15 16 17 18 19 20 21 22 23 24 25 26 27 28 29 30 31 32 33 34 35 36 37 38 39 40 41 42 43 44 45 46 47 48 49 50
000
ASUS43 KFSD 151002
RWRFSD

WEATHER ROUNDUP FOR SE SOUTH DAKOTA/SW MINNESOTA/NW IOWA
NATIONAL WEATHER SERVICE SIOUX FALLS SD
400 AM CST FRI DEC 15 2017

NOTE: "FAIR" INDICATES FEW OR NO CLOUDS BELOW 12,000 FEET WITH NO
SIGNIFICANT WEATHER AND OR OBSTRUCTIONS TO VISIBILITY.


SDZ038>040-050-052>070-151100-
SOUTHEAST SOUTH DAKOTA

CITY           SKY/WX    TMP DP  RH WIND       PRES   REMARKS
CHAMBERLAIN    CLEAR     29  27  92 W9        29.99F WCI  21
HURON          CLOUDY    33  27  78 W12       29.96F WCI  24
MADISON        CLOUDY    30  30 100 W12       29.94F WCI  21
MITCHELL       PTCLDY    33  27  78 W13       29.99F WCI  24
SIOUX FALLS    CLOUDY    31  27  85 W7        29.97F WCI  24
WINNER         FAIR      28  22  78 SW9       30.00F WCI  19
YANKTON        CLOUDY    34  25  69 W14       30.02F WCI  25
$$

MNZ071-072-080-081-089-090-097-098-151100-
SOUTHWEST MINNESOTA

CITY           SKY/WX    TMP DP  RH WIND       PRES   REMARKS
FAIRMONT       FLURRIES  28  23  81 W14       29.95F WCI  17
JACKSON        CLOUDY    28  25  86 MISG      29.94F
LUVERNE        CLOUDY    30  27  86 W12       29.97F WCI  21
MARSHALL       CLOUDY    31  27  85 W14       29.92F WCI  21
MONTEVIDEO     CLOUDY    28  27  93 CALM      29.91F
PIPESTONE      CLOUDY    28  27  93 W10       29.92F WCI  19
REDWOOD FALLS  CLOUDY    30  27  88 W8        29.91F WCI  22
WINDOM         FLURRIES  28  16  59 SW8       29.93F WCI  20
WORTHINGTON    FLURRIES  27  25  92 W15       29.94F WCI  15
$$

IAZ001>003-012>014-020>022-031-032-NEZ013-014-SDZ071-151100-
NORTHWEST IOWA

CITY           SKY/WX    TMP DP  RH WIND       PRES   REMARKS
CHEROKEE       CLOUDY    29  26  86 SW7       30.01F WCI  22
DENISON        CLOUDY    28  25  86 SW8       30.06F WCI  20
ESTHERVILLE    CLOUDY    27  24  89 SW9       29.95F WCI  18
LE MARS        CLOUDY    32  27  80 SW8       30.01F WCI  25
ORANGE CITY    CLOUDY    30  28  93 W10       29.98F WCI  21
SHELDON        CLOUDY    28  27  93 SW12      29.96F WCI  18
SIOUX CITY     CLOUDY    33  25  72 W7        30.04F WCI  27
SPENCER        CLOUDY    29  25  85 W14       29.97F WCI  18
STORM LAKE     CLOUDY    28  25  86 W13       29.99F WCI  18
$$

ABBREVIATIONS USED IN REMARKS
   TC - TEMPERATURE IN CELSIUS
  WCI - WIND CHILL INDEX
   HX - HEAT INDEX
  VSB - VISIBILITY




USA.gov is the U.S. government's official web portal to all federal, state and local government web resources and services.